Location: Franzen
(48.6167°N, 15.3833°E)
Time: 12:26:25
(UTC+00:00)

ATLAS 5 CENTAUR R/B - Pass Details

Date: 22 April 2021
Orbit: 516 x 1141 km, 63.3° (Epoch: 02 May)

Event Time Altitude Azimuth Distance (km) Brightness Sun altitude
Rises 21:33:16 0° 317° (NW) 3,031 6.2 -26.1°
Reaches altitude 10° 21:35:56 10° 333° (NNW) 2,219 5.4 -26.3°
Maximum altitude 21:39:55 22° 24° (NNE) 1,680 4.2 -26.5°
Drops below altitude 10° 21:44:26 10° 74° (ENE) 2,548 4.6 -26.8°
Enters shadow 21:45:38 - 81° (E) 2,917 4.9 -26.9°
